OpenBCM V1.13 (Linux)

Packet Radio Mailbox

DB0FHN

[JN59NK Nuernberg]

 Login: GUEST





  
I0OJJ  > KEPS     12.12.24 04:42l 355 Lines 16897 Bytes #999 (0) @ AMSAT
BID : ORB24347.1
Read: DJ6UX GUEST
Subj: 2Line Orbital Elements 24347.AMSAT
Path: DB0FHN<DB0FFL<OE5XBL<OE6XPE<DB0ERF<IZ3LSV<I0OJJ
Sent: 241212/0240z @:I0OJJ.ITA.EU [Rome] obcm1.08-6-g5b69
From: I0OJJ @ I0OJJ.ITA.EU (Gustavo)
To:   KEPS @ AMSAT
X-Info: This message was generated automatically


QST de W1STR

AMSAT Orbital Elements for Amateur Satellites in TLE Format
From Orbital Analysis Office
New England Sci-Tech STEM Education Center
Natick, MA December 12, 2024
To all radio amateurs


These element sets describe the orbits of various satellites 
in use by the amateur radio community. For details see:
www.amsat.org/keplerian-elements-formats/

A daily update of element sets is available at:
www.amsat.org/tle/daily-bulletin.txt
or without bulletin text:
www.amsat.org/tle/dailytle.txt


AO-07
1 07530U 74089B   24346.63177059 -.00000013  00000-0  20786-3 0  9991
2 07530 101.9898 343.0147 0012390 105.2418   7.0846 12.53683685291511
UO-11
1 14781U 84021B   24346.48796053  .00002687  00000-0  29685-3 0  9993
2 14781  97.7298 310.8454 0007007 200.7350 159.3584 14.88232543174840
AO-27
1 22825U 93061C   24346.13931957  .00000300  00000-0  13198-3 0  9993
2 22825  98.7655  40.5597 0007357 282.9799  77.0562 14.30678262627910
FO-29
1 24278U 96046B   24346.64493304  .00000044  00000-0  77994-4 0  9998
2 24278  98.5879 258.0696 0350976  88.6618 275.4696 13.53224975398688
NOAA-15
1 25338U 98030A   24346.59889921  .00000388  00000-0  17769-3 0  9993
2 25338  98.5534   9.9126 0010607 160.5575 199.6012 14.26822975382734
GO-32
1 25397U 98043D   24346.49832732  .00000281  00000-0  14204-3 0  9992
2 25397  98.9478 316.1048 0001834  42.5026 317.6294 14.24209691372654
ISS
1 25544U 98067A   24346.72336712  .00019889  00000-0  34923-3 0  9999
2 25544  51.6389 155.8003 0007139 329.9939 140.9610 15.50493085486087
NO-44
1 26931U 01043C   24346.40593106  .00000464  00000-0  20559-3 0  9994
2 26931  67.0504 233.6172 0006809 260.7110  99.3222 14.31537272211319
SO-50
1 27607U 02058C   24346.54498884  .00002642  00000-0  35925-3 0  9997
2 27607  64.5559  35.8080 0034647  23.7112 336.5580 14.80489369182779
CO-55
1 27844U 03031E   24346.57474374  .00000851  00000-0  39188-3 0  9998
2 27844  98.6777 351.1950 0009615 356.7291   3.3824 14.23695768113050
CO-57
1 27848U 03031J   24346.01963211  .00000711  00000-0  33450-3 0  9995
2 27848  98.6807 350.7836 0009839  14.8235 345.3229 14.23073711112688
RS-22
1 27939U 03042A   24346.80551319  .00002763  00000-0  45473-3 0  9994
2 27939  98.3073 146.2284 0011006 215.0226 252.1058 14.71360015134385
NOAA-18
1 28654U 05018A   24346.61848711  .00000392  00000-0  23171-3 0  9995
2 28654  98.8613  62.0069 0013237 280.4702  79.4978 14.13449591  8322
CO-58
1 28895U 05043F   24346.32177992  .00004037  00000-0  68639-3 0  9992
2 28895  98.2233 122.8954 0015494 154.8196 205.3768 14.69606468 20451
CO-65
1 32785U 08021C   24346.89379156  .00008432  00000-0  66607-3 0  9998
2 32785  97.7701 311.4380 0013096 108.0757 252.1894 15.00867091902161
AAUSAT2
1 32788U 08021F   24346.44858962  .00062759  00000-0  17441-2 0  9992
2 32788  97.6042 329.4126 0001141  62.7354 297.4006 15.36641556905441
CO-66
1 32791U 08021J   24345.81584944  .00018137  00000-0  10819-2 0  9995
2 32791  97.7102 317.0447 0007278  72.5026 287.6998 15.11183538903201
RS-30
1 32953U 08025A   24346.61105475  .00000054  00000-0  31721-3 0  9991
2 32953  82.5031 339.1286 0020654  78.6372 281.7027 12.43155015751170
PRISM
1 33493U 09002B   24346.44350575  .00069652  00000-0  17284-2 0  9997
2 33493  98.1782  51.4423 0007758 351.8495   8.2621 15.40075247866105
NOAA-19
1 33591U 09005A   24346.59602771  .00000381  00000-0  22749-3 0  9990
2 33591  99.0250  44.0846 0014324 149.1030 211.0988 14.13226607816686
SRMSAT
1 37841U 11058D   24346.66862731  .00000626  00000-0  19704-3 0  9994
2 37841  19.9700 163.1696 0011702 246.1932 188.6529 14.11308033679882
RS-40
1 38735U 12041C   24346.63195615  .00000033  00000-0  16702-3 0  9994
2 38735  82.4773  59.2378 0017614 189.0979 170.9784 12.42621890561301
ZACUBE-1
1 39417U 13066B   24346.82420791  .00009478  00000-0  89178-3 0  9996
2 39417  97.7572 299.4829 0045053 293.1427  66.5048 14.93314122598057
Delfi-N3xt
1 39428U 13066N   24346.33268930  .00011453  00000-0  12918-2 0  9992
2 39428  97.8371 260.5688 0089884 231.8798 127.4289 14.83803620592489
GOMX-1
1 39430U 13066Q   24346.62248488  .00003752  00000-0  60149-3 0  9996
2 39430  97.7045 210.2194 0137026  48.0568 313.2221 14.66132716589027
LO-74
1 39440U 13066AA  24346.80044037  .00008456  00000-0  91328-3 0  9990
2 39440  97.8313 287.1947 0067611  53.0810 307.6574 14.86901528595891
AO-73
1 39444U 13066AE  24346.44334978  .00012951  00000-0  10958-2 0  9994
2 39444  97.7428 302.8332 0040733 270.7205  88.9349 14.97516590596585
DTUSAT-2
1 40030U 14033W   24346.44533851  .00012714  00000-0  93285-3 0  9995
2 40030  98.0325 304.4363 0009204 317.6295  42.4218 15.03601487569283
EO-80
1 40032U 14033Y   24346.60819300  .00011092  00000-0  81326-3 0  9992
2 40032  98.0231 304.5028 0006534 242.1336 117.9227 15.03682270569288
XW-2C
1 40906U 15049H   24346.70960153  .00129710  00000-0  10541-2 0  9991
2 40906  97.4558  10.7801 0005257  39.6875 320.4770 15.70286244512025
LILACSAT-2
1 40908U 15049K   24346.79248588  .00015606  00000-0  49657-3 0  9992
2 40908  97.5192 357.4928 0012952  83.6411 276.6305 15.32600453510639
IO-86
1 40931U 15052B   24337.09180034  .00002217  00000-0  20975-3 0  9992
2 40931   5.9986 232.5457 0013173 302.5393  57.3463 14.78392648496340
ChubuSat-2
1 41338U 16012B   24346.62647957  .00008842  00000-0  49232-3 0  9999
2 41338  31.0015 325.6460 0011079 222.8201 137.1575 15.12259943484446
ChubuSat-3
1 41339U 16012C   24346.33069795  .00008578  00000-0  49152-3 0  9993
2 41339  31.0080 327.4910 0011116 221.8877 138.0911 15.11224756484367
Horyu-4
1 41340U 16012D   24346.45706196  .00025313  00000-0  95813-3 0  9992
2 41340  31.0004 253.1596 0009069 340.5801  19.4496 15.25710068485159
Lapan A3
1 41603U 16040E   24346.64038329  .00005477  00000-0  20469-3 0  9996
2 41603  97.1390 352.5709 0011230 181.1040 179.0177 15.27687074470299
Pratham
1 41783U 16059A   24346.60858218  .00001728  00000-0  32307-3 0  9997
2 41783  97.8291 357.6469 0032072 174.8240 185.3303 14.65762506438528
CAS-2T
1 41847U 16066G   24346.47480196  .00002035  00000-0  30078-3 0  9992
2 41847  98.4435  56.4315 0349594   3.1093 357.2158 14.42530376425044
CAS-4B
1 42759U 17034B   24346.58287558  .00038780  00000-0  91196-3 0  9994
2 42759  43.0144 295.6176 0013202 124.2316 235.9793 15.41235047414647
CAS-4A
1 42761U 17034D   24346.30458627  .00039317  00000-0  91537-3 0  9990
2 42761  43.0178 295.3597 0014228 130.8760 229.3332 15.41515748414618
D-SAT
1 42794U 17036AF  24346.49851537  .00011925  00000-0  73964-3 0  9994
2 42794  97.4949 322.5239 0099272 264.8191  94.1701 15.05791330407384
TechnoSat
1 42829U 17042E   24346.47976273  .00006325  00000-0  52017-3 0  9997
2 42829  97.3846 158.0227 0012327 193.0939 166.9966 14.99399095403714
AO-91
1 43017U 17073E   24346.56176499  .00012483  00000-0  69028-3 0  9995
2 43017  97.5482 216.1691 0193512  57.8622 304.1216 14.99358887382180
S-Net D
1 43186U 18014G   24346.48685695  .00009076  00000-0  58533-3 0  9995
2 43186  97.5758 245.4712 0011186 115.9384 244.2998 15.08469590375198
S-Net B
1 43187U 18014H   24346.68929106  .00008666  00000-0  55917-3 0  9993
2 43187  97.5764 245.6324 0012007 111.6487 248.6022 15.08458852375226
S-Net A
1 43188U 18014J   24346.68677087  .00008973  00000-0  57855-3 0  9996
2 43188  97.5773 245.7586 0011915 112.5700 247.6790 15.08476466375225
S-Net C
1 43189U 18014K   24346.62500090  .00008392  00000-0  54141-3 0  9990
2 43189  97.5786 245.6806 0013727 106.7068 253.5668 15.08454821373767
Ten-Koh
1 43677U 18084G   24346.71733566  .00005528  00000-0  46537-3 0  9993
2 43677  98.0778 146.0284 0014117 147.2028 213.0073 14.98593670333288
PO-101
1 43678U 18084H   24346.65722501  .00003207  00000-0  28520-3 0  9998
2 43678  98.0858 150.2666 0009103 158.5751 201.5853 14.96828529333455
QO-100
1 43700U 18090A   24346.52738837  .00000160  00000-0  00000-0 0  9991
2 43700   0.0140 305.2490 0002294 353.6529 357.4875  1.00270734 22135
MinXSS-2
1 43758U 18099A   24346.59833988  .00019300  00000-0  97265-3 0  9991
2 43758  97.5316  46.9103 0014994  68.4449 291.8381 15.17107295329605
AO-95
1 43770U 18099N   24346.62466025  .00013198  00000-0  77633-3 0  9999
2 43770  97.5225  41.1066 0013365 112.8115 247.4529 15.11706658329319
RANGE-B
1 43772U 18099Q   24346.44900492  .00025319  00000-0  11916-2 0  9991
2 43772  97.5019  45.4321 0004502  23.9604 336.1840 15.19525303329542
RANGE-A
1 43773U 18099R   24346.60960985  .00007881  00000-0  54300-3 0  9992
2 43773  97.4790  34.3056 0013690  89.2477 271.0319 15.06035904329100
MOVE-II
1 43780U 18099Y   24346.17313156  .00047380  00000-0  14786-2 0  9995
2 43780  97.4968  49.1318 0005113  79.6361 280.5457 15.33047234329866
SNUSat 2
1 43782U 18099AA  24346.64979854  .00010936  00000-0  67570-3 0  9999
2 43782  97.4901  39.2271 0014298  58.2948 301.9673 15.09955262329300
SnugLite
1 43784U 18099AC  24346.62423196  .00013396  00000-0  78355-3 0  9998
2 43784  97.4723  38.5190 0005139  69.1820 290.9961 15.11969339329399
ITASat 1
1 43786U 18099AE  24346.62472082  .00010180  00000-0  64724-3 0  9991
2 43786  97.4880  39.1613 0017059 105.0555 255.2563 15.08889221329288
EAGLET 1
1 43790U 18099AJ  24346.63565631  .00007945  00000-0  54411-3 0  9997
2 43790  97.5065  39.5646 0014076  86.3577 273.9259 15.06254034328958
ESEO
1 43792U 18099AL  24346.59840941  .00003366  00000-0  26555-3 0  9995
2 43792  97.4841  35.0049 0009908  56.8505 303.3669 15.01345026328804
CSIM
1 43793U 18099AM  24346.14853983  .00048875  00000-0  15461-2 0  9994
2 43793  97.5119  50.9622 0008734  53.4195 306.7849 15.32581868329708
